EW3804 Weather Reports


Display with metric or nautical units.
time (UTC)temp
F
wind
direction
speed
MPH
gust
MPH
rain 1hr
in
rain 24hr
in
rain mn
in
humidity
%
barometer
mb
20260504034605 65 162 0.0 0.0 0.00 0.00 0.00 64 1009.5
20260504033037 66 158 0.0 0.0 0.00 0.00 0.00 64 1009.5
20260504031535 66 136 0.0 0.0 0.00 0.00 0.00 63 1009.3
20260504030028 66 133 0.0 0.0 0.00 0.00 0.00 63 1009.2
20260504024523 66 139 0.0 0.0 0.00 0.00 0.00 64 1009.3
20260504023019 66 134 0.0 0.0 0.00 0.00 0.00 63 1009.4
20260504021514 67 163 0.0 1.0 0.00 0.00 0.00 62 1009.2
20260504020015 68 139 0.0 0.0 0.00 0.00 0.00 61 1009.0
20260504014506 68 131 0.0 0.0 0.00 0.00 0.00 59 1009.0
20260504013002 69 129 0.0 0.0 0.00 0.00 0.00 58 1008.9
20260504011556 70 137 0.0 1.0 0.00 0.00 0.00 57 1008.9
20260504010053 71 138 0.0 1.0 0.00 0.00 0.00 54 1008.9
20260504004548 72 145 0.0 1.0 0.00 0.00 0.00 53 1008.9
20260504003043 73 146 0.0 1.0 0.00 0.00 0.00 51 1009.1
20260504001547 75 156 0.0 0.0 0.00 0.00 0.00 47 1009.0
20260504000035 75 141 0.0 0.0 0.00 0.00 0.00 44 1009.2
20260503234531 76 150 0.0 0.0 0.00 0.00 0.00 43 1009.3
20260503233024 77 151 0.0 0.0 0.00 0.00 0.00 40 1009.5
20260503231522 78 143 0.0 0.0 0.00 0.00 0.00 38 1009.4
20260503230016 79 165 0.0 0.0 0.00 0.00 0.00 40 1009.6
20260503224511 79 149 0.0 0.0 0.00 0.00 0.00 40 1009.8
20260503223006 79 191 0.0 0.0 0.00 0.00 0.00 41 1009.8
20260503221501 79 101 0.0 0.0 0.00 0.00 0.00 38 1010.0
20260503220058 79 152 0.0 0.0 0.00 0.00 0.00 38 1010.2
20260503214601 79 160 0.0 0.0 0.00 0.00 0.00 38 1010.4
20260503213049 79 159 0.0 0.0 0.00 0.00 0.00 35 1010.7
20260503211549 79 164 0.0 0.0 0.00 0.00 0.00 38 1010.9
20260503210039 80 108 0.0 0.0 0.00 0.00 0.00 36 1011.1
20260503204536 80 169 0.0 0.0 0.00 0.00 0.00 36 1011.3
20260503203029 80 157 0.0 0.0 0.00 0.00 0.00 36 1011.6
20260503201526 80 134 0.0 1.0 0.00 0.00 0.00 32 1012.0
20260503200021 79 162 0.0 1.0 0.00 0.00 0.00 34 1012.0
20260503194519 80 146 0.0 0.0 0.00 0.00 0.00 36 1012.2
20260503193012 80 178 0.0 0.0 0.00 0.00 0.00 34 1012.4
20260503191508 79 233 0.0 0.0 0.00 0.00 0.00 33 1012.6
20260503190005 79 176 0.0 0.0 0.00 0.00 0.00 35 1012.9
20260503184602 79 194 0.0 0.0 0.00 0.00 0.00 37 1013.2
20260503183101 79 177 0.0 0.0 0.00 0.00 0.00 34 1013.4
20260503181549 78 173 0.0 0.0 0.00 0.00 0.00 38 1013.7
20260503180054 78 168 0.0 0.0 0.00 0.00 0.00 41 1013.9
20260503174541 78 198 0.0 1.0 0.00 0.00 0.00 38 1014.1
20260503173046 78 165 0.0 0.0 0.00 0.00 0.00 42 1014.4
20260503171539 77 195 0.0 0.0 0.00 0.00 0.00 45 1014.6
20260503081534 54 174 0.0 0.0 0.00 0.00 0.00 87 1013.2
20260503071512 57 195 0.0 0.0 0.00 0.00 0.00 83 1013.6
20260503060103 58 179 0.0 0.0 0.00 0.00 0.00 77 1014.0
20260503054556 59 210 0.0 0.0 0.00 0.00 0.00 74 1014.0
20260503053056 59 187 0.0 0.0 0.00 0.00 0.00 74 1014.0
20260503051557 59 178 0.0 0.0 0.00 0.00 0.00 73 1013.9
20260503050047 60 192 0.0 0.0 0.00 0.00 0.00 70 1013.8
20260503044547 60 182 0.0 0.0 0.00 0.01 0.00 69 1013.7
20260503043050 60 165 0.0 0.0 0.00 0.01 0.00 70 1013.7
20260503041545 60 165 0.0 0.0 0.00 0.01 0.00 69 1013.6
20260503040045 61 165 0.0 0.0 0.00 0.01 0.00 69 1013.6